Regional Weather Roundup
Issued by NWS Little Rock, AR

Home | Current Version | Previous Version | Text Only | Print | Product List | Glossary On
Versions: 1 2 3 4 5 6 7 8 9 10 11 12 13 14 15 16 17 18 19 20 21 22 23 24 25 26 27 28 29 30 31 32 33 34 35 36 37 38 39 40 41 42 43 44 45 46 47 48 49 50
000
ASUS44 KLZK 191705
RWRLZK

WEATHER ROUNDUP FOR ARKANSAS
NATIONAL WEATHER SERVICE LITTLE ROCK AR
1200 PM CDT SUN APR 19 2015

NOTE: "FAIR" INDICATES FEW OR NO CLOUDS BELOW 12,000 FEET WITH NO
SIGNIFICANT WEATHER AND/OR OBSTRUCTIONS TO VISIBILITY.

ARZ001-003-010-029-191800-
NORTHWEST ARKANSAS

CITY           SKY/WX    TMP DP  RH WIND       PRES   REMARKS
FAYETTEVILLE   SUNNY     68  54  60 W8G26     29.73F
FORT SMITH     SUNNY     71  54  54 W7        29.71F
HARRISON       CLOUDY    69  53  56 W10G16    29.70F
BENTONVILLE    MOSUNNY   68  52  56 NW16G22   29.75F
ROGERS         MOSUNNY   67  52  58 NW15G21   29.73F
SILOAM SPGS    PTSUNNY   66  54  63 NW12      29.75F
HIGHFILL       MOSUNNY   68  54  60 NW14G22   29.73F
SPRINGDALE     MOSUNNY   68  54  60 W8        29.75F
$$

ARZ004-005-016-191800-
NORTH CENTRAL ARKANSAS

CITY           SKY/WX    TMP DP  RH WIND       PRES   REMARKS
BATESVILLE     CLOUDY    70  61  73 SW10      29.67R
FLIPPIN        CLOUDY    70 N/A N/A W6        29.65S
MTN HOME       CLOUDY    68  58  70 VRB7      29.67R
$$

ARZ040-041-191800-
WEST CENTRAL ARKANSAS

CITY           SKY/WX    TMP DP  RH WIND       PRES   REMARKS
MENA           SUNNY     77  57  50 SW9G16    29.73F
MOUNT IDA      MOSUNNY   75  57  53 CALM      29.69F
$$

ARZ009-017-025-026-028-191800-
NORTHEAST ARKANSAS

CITY           SKY/WX    TMP DP  RH WIND       PRES   REMARKS
CORNING          N/A     68  64  88 NW9       29.60S
JONESBORO      CLOUDY    70  63  78 W8        29.61S
NEWPORT        CLOUDY    71  63  76 W15       29.67R
WALNUT RIDGE   CLOUDY    72  61  68 NW8       29.61R
BLYTHEVILLE    CLOUDY    69  63  81 SW9       29.61S
$$

ARZ022-023-033-042-044-191800-
CENTRAL ARKANSAS

CITY           SKY/WX    TMP DP  RH WIND       PRES   REMARKS
LITTLE ROCK    CLOUDY    73  60  63 W9        29.71R
N LITTLE ROCK  PTSUNNY   68  64  85 W7        29.71R
JACKSONVILLE   CLOUDY    70  62  75 W7        29.70R
SEARCY         CLOUDY    69  63  81 VRB6      29.70R
HOT SPRINGS    SUNNY     72  59  63 CALM      29.72S
RUSSELLVILLE   MOSUNNY   71  57  61 W8        29.71S
CLINTON        FAIR      72  59  64 SW8       29.69F
$$

ARZ036-191800-
EAST ARKANSAS

CITY           SKY/WX    TMP DP  RH WIND       PRES   REMARKS
WEST MEMPHIS   CLOUDY    68  63  84 W8        29.65R
$$

ARZ050-053-066-070-073-191800-
SOUTHWEST ARKANSAS

CITY           SKY/WX    TMP DP  RH WIND       PRES   REMARKS
ARKADELPHIA    FAIR      76  61  59 SW13      29.73F
CAMDEN         SUNNY     75  57  53 NE13      29.75S
TEXARKANA      SUNNY     72  59  63 SW10      29.74F
EL DORADO      SUNNY     73  59  61 W8        29.77S
DE QUEEN       SUNNY     72  59  63 SW9       29.71F
$$

ARZ056-057-069-191800-
SOUTHEAST ARKANSAS

CITY           SKY/WX    TMP DP  RH WIND       PRES   REMARKS
PINE BLUFF     MOSUNNY   73  59  61 W13       29.73R
STUTTGART      CLOUDY    68  63  83 W7        29.71R
MONTICELLO     SUNNY     72  58  61 SW8       29.75R

$$





USA.gov is the U.S. government's official web portal to all federal, state and local government web resources and services.